This is the latest recevied weather packets stored in our database for station/object N5PRN. If no packets are shown the sender has not sent any weather packets the latest 10 day(s).
| Time | Temp. | Humidity | Pressure | Rain* | Wind** | Luminosity | Snow |
|---|---|---|---|---|---|---|---|
| 1777771501 | 14.44° C | 84% | 1018.7 hPa | 0 mm | - | 0 W/m² | - |
| 1777771196 | 14.44° C | 83% | 1018.5 hPa | 0 mm | - | 0 W/m² | - |
| 1777770894 | 15° C | 81% | 1018.6 hPa | 0 mm | - | 0 W/m² | - |
| 1777770591 | 15° C | 80% | 1018.5 hPa | 0 mm | - | 0 W/m² | - |
| 1777770287 | 15° C | 79% | 1018.8 hPa | 0 mm | - | 0 W/m² | - |
| 1777769985 | 15.56° C | 75% | 1018.6 hPa | 0 mm | - | 0 W/m² | - |
| 1777769682 | 15.56° C | 72% | 1018.5 hPa | 0 mm | - | 0 W/m² | - |
| 1777769378 | 16.11° C | 73% | 1018.4 hPa | 0 mm | - | 2 W/m² | - |
| 1777769075 | 16.67° C | 71% | 1018.2 hPa | 0 mm | - | 3 W/m² | - |
| 1777768773 | 16.67° C | 68% | 1018.2 hPa | 0 mm | - | 6 W/m² | - |
| 1777768470 | 16.67° C | 69% | 1018.4 hPa | 0 mm | - | 10 W/m² | - |
| 1777768167 | 17.22° C | 63% | 1018.2 hPa | 0 mm | - | 13 W/m² | - |
| 1777767864 | 17.78° C | 62% | 1018.1 hPa | 0 mm | - | 16 W/m² | - |
| 1777767560 | 18.33° C | 61% | 1018.1 hPa | 0 mm | - | 19 W/m² | - |
| 1777767257 | 18.33° C | 59% | 1018.2 hPa | 0 mm | - | 23 W/m² | - |
| 1777766955 | 18.89° C | 57% | 1018.1 hPa | 0 mm | - | 24 W/m² | - |
| 1777766651 | 18.89° C | 55% | 1018.2 hPa | 0 mm | - | 27 W/m² | - |
| 1777766348 | 19.44° C | 57% | 1017.9 hPa | 0 mm | - | 30 W/m² | - |
| 1777766039 | 19.44° C | 53% | 1018.1 hPa | 0 mm | - | 33 W/m² | - |
| 1777765736 | 19.44° C | 55% | 1018 hPa | 0 mm | - | 38 W/m² | - |
| 1777765433 | 20° C | 56% | 1018.1 hPa | 0 mm | - | 39 W/m² | - |
| 1777765130 | 20° C | 52% | 1017.9 hPa | 0 mm | - | 42 W/m² | - |
| 1777764825 | 20° C | 54% | 1018 hPa | 0 mm | - | 42 W/m² | - |
| 1777764523 | 20° C | 48% | 1017.8 hPa | 0 mm | - | 45 W/m² | - |
| 1777764220 | 20.56° C | 49% | 1017.6 hPa | 0 mm | - | 51 W/m² | - |
* Rain latest hour (hover to see other rain measurements)
** Current wind speed in m/s (hover to see current wind gust speed)